Visibility
15.0 8.7 15.0 14.0 15.0 15.0 15.0 14.4 9.6 14.9 15.0 0.9 0.0 0.1 13.7 3.9 15.0 11.4 15.0 15.0 6.7 0.2 0.1 15.0 15.0 15.0 15.0 15.0 15.0 15.0 15.0 15.0 15.0 15.0 15.0 15.0 15.0 15.0 15.0 15.0 15.0 15.0 15.0 15.0
6.5 12.6 12.5 15.0 12.4 15.0 12.3 9.8 15.0 15.0 8.9 0.0 2.2 15.0 0.1 14.2 15.0 15.0 3.1 2.6 15.0 15.0 0.0 6.2 15.0 15.0 15.0 15.0 15.0 15.0 15.0 15.0 15.0 15.0 15.0 15.0 15.0 15.0 15.0 15.0 15.0 15.0 15.0 15.0
15.0 15.0 15.0 11.7 15.0 15.0 15.0 1.5 1.5 15.0 12.6 0.1 0.0 0.8 11.0 15.0 15.0 14.0 15.0 8.3 14.3 5.5 0.1 3.9 15.0 15.0 15.0 15.0 15.0 15.0 15.0 15.0 15.0 15.0 15.0 15.0 15.0 15.0 15.0 15.0 15.0 15.0 15.0 15.0
15.0 15.0 15.0 15.0 15.0 15.0 10.3 13.0 0.1 0.1 6.8 9.1 4.7 0.7 1.9 2.5 0.3 12.9 15.0 5.5 12.8 4.8 0.0 8.2 11.9 15.0 15.0 15.0 15.0 15.0 15.0 15.0 15.0 15.0 15.0 15.0 15.0 15.0 15.0 15.0 15.0 15.0 15.0 15.0
15.0 14.1 15.0 15.0 15.0 12.7 5.7 12.3 0.3 0.0 0.1 0.0 0.3 11.2 4.2 1.0 0.4 0.0 15.0 15.0 6.3 14.7 0.1 0.0 14.8 15.0 15.0 15.0 15.0 15.0 15.0 0.1 15.0 15.0 15.0 15.0 15.0 15.0 15.0 15.0 15.0 15.0 15.0 15.0
15.0 15.0 15.0 15.0 15.0 12.7 10.0 14.2 13.0 0.0 2.2 11.8 5.8 0.3 0.2 0.7 10.3 9.2 15.0 15.0 15.0 14.2 5.4 15.0 15.0 15.0 15.0 15.0 15.0 15.0 0.1 2.9 12.9 15.0 15.0 15.0 15.0 15.0 15.0 15.0 15.0 15.0 15.0 15.0
15.0 15.0 15.0 15.0 15.0 15.0 9.9 8.6 13.9 4.2 3.8 13.1 8.1 3.3 0.2 0.4 6.0 0.1 15.0 15.0 12.7 15.0 15.0 15.0 13.8 14.9 15.0 14.8 11.9 15.0 15.0 15.0 0.0 15.0 15.0 15.0 15.0 15.0 15.0 15.0 15.0 15.0 15.0 15.0
15.0 15.0 15.0 15.0 15.0 15.0 15.0 4.5 3.5 0.3 0.1 13.0 15.0 6.9 0.1 5.6 4.2 0.2 0.1 15.0 15.0 15.0 15.0 0.1 0.0 3.7 0.7 7.3 15.0 15.0 15.0 0.0 0.0 15.0 15.0 15.0 15.0 15.0 15.0 15.0 15.0 15.0 15.0 15.0
15.0 15.0 15.0 15.0 15.0 15.0 15.0 11.1 7.6 1.0 0.0 15.0 14.4 0.0 0.3 0.1 0.1 0.2 1.1 15.0 15.0 15.0 8.4 0.0 0.1 0.2 4.7 0.5 0.7 15.0 15.0 15.0 1.3 0.2 5.0 15.0 15.0 15.0 15.0 15.0 15.0 15.0 15.0 15.0
15.0 15.0 15.0 15.0 15.0 15.0 15.0 15.0 7.3 0.0 0.0 10.9 0.1 0.0 0.0 0.1 0.2 0.1 0.1 0.0 6.0 13.7 0.0 0.0 0.8 15.0 15.0 10.3 8.1 8.2 4.9 0.5 0.1 0.2 0.1 1.9 15.0 15.0 15.0 15.0 15.0 15.0 15.0 15.0
15.0 15.0 15.0 15.0 15.0 15.0 15.0 15.0 15.0 0.1 0.0 12.7 3.1 0.0 0.0 0.0 0.1 0.1 0.7 0.1 0.0 0.0 0.0 0.1 2.9 14.7 15.0 15.0 15.0 15.0 13.7 4.3 0.1 0.2 0.1 4.6 15.0 15.0 15.0 15.0 15.0 15.0 15.0 15.0
15.0 15.0 15.0 15.0 15.0 15.0 15.0 15.0 15.0 15.0 0.0 0.2 0.1 0.1 0.0 0.0 0.0 0.0 0.2 0.0 0.0 0.0 0.0 0.0 15.0 13.6 15.0 15.0 15.0 15.0 15.0 15.0 15.0 14.9 15.0 15.0 15.0 15.0 15.0 15.0 15.0 15.0 15.0 15.0
15.0 15.0 15.0 15.0 15.0 15.0 15.0 14.8 15.0 14.4 3.1 12.6 0.1 0.0 0.1 0.1 0.0 0.1 0.1 0.0 0.0 0.0 0.0 0.0 0.3 0.4 15.0 15.0 15.0 15.0 15.0 15.0 15.0 15.0 15.0 15.0 15.0 15.0 15.0 15.0 15.0 15.0 15.0 15.0
15.0 15.0 15.0 15.0 15.0 15.0 15.0 15.0 11.8 15.0 0.2 0.1 1.2 15.0 0.1 7.3 13.7 0.1 0.0 0.0 0.0 0.0 0.0 0.0 0.1 6.9 15.0 15.0 15.0 15.0 15.0 15.0 15.0 5.8 15.0 15.0 15.0 15.0 15.0 15.0 15.0 15.0 15.0 15.0
15.0 15.0 15.0 15.0 15.0 15.0 15.0 15.0 15.0 15.0 0.0 0.5 6.3 15.0 15.0 15.0 15.0 15.0 15.0 0.2 0.0 0.0 0.1 0.1 0.1 0.1 0.1 11.7 15.0 14.1 1.6 1.5 15.0 15.0 15.0 15.0 15.0 15.0 15.0 15.0 15.0 15.0 15.0 15.0
15.0 15.0 15.0 15.0 15.0 15.0 15.0 0.5 15.0 15.0 15.0 0.0 1.1 14.9 3.4 15.0 15.0 15.0 15.0 15.0 0.0 0.0 0.1 0.2 0.1 0.1 0.1 0.3 0.1 0.2 0.2 3.5 9.8 0.2 1.6 15.0 7.1 15.0 15.0 15.0 15.0 15.0 15.0 15.0
15.0 15.0 15.0 15.0 15.0 15.0 15.0 15.0 15.0 15.0 15.0 0.0 1.2 14.3 15.0 15.0 15.0 15.0 15.0 15.0 15.0 0.3 0.1 0.2 0.1 0.2 0.4 0.2 0.1 0.9 1.6 0.3 0.2 0.3 2.7 0.4 0.7 0.2 7.3 10.8 0.5 0.4 0.1 0.2
15.0 15.0 15.0 15.0 15.0 15.0 15.0 15.0 15.0 15.0 3.5 9.2 15.0 15.0 15.0 15.0 15.0 13.8 15.0 15.0 15.0 10.2 0.3 0.9 0.5 1.7 0.2 0.1 0.1 0.1 0.1 0.1 0.1 0.1 0.1 0.1 0.1 0.1 0.1 0.1 0.3 0.3 0.4 1.3
15.0 15.0 15.0 15.0 15.0 15.0 15.0 15.0 15.0 15.0 15.0 15.0 15.0 1.8 2.8 15.0 15.0 10.6 15.0 13.9 5.5 12.1 0.3 0.9 9.2 0.5 0.2 0.2 0.1 0.1 0.1 0.1 0.1 0.1 0.1 0.1 0.1 0.1 0.1 0.1 1.1 12.1 14.8 15.0
15.0 15.0 15.0 14.6 15.0 15.0 15.0 15.0 15.0 15.0 15.0 15.0 15.0 15.0 14.3 14.9 15.0 12.9 14.5 15.0 1.5 0.5 0.5 4.9 10.2 2.0 0.4 0.3 0.2 0.1 0.1 0.1 0.1 0.1 0.1 0.1 0.1 0.2 0.4 1.9 3.9 15.0 15.0 15.0
15.0 15.0 15.0 15.0 15.0 15.0 15.0 15.0 15.0 15.0 15.0 15.0 15.0 15.0 7.5 15.0 0.2 2.0 0.7 1.3 2.4 0.5 1.5 0.3 0.2 0.3 0.2 0.2 0.1 0.1 0.1 0.1 0.1 0.1 0.1 0.1 0.2 0.3 2.1 10.6 14.9 15.0 15.0 15.0
15.0 14.4 15.0 15.0 15.0 15.0 15.0 15.0 15.0 15.0 10.4 15.0 15.0 15.0 15.0 8.9 1.3 0.3 9.1 0.6 0.4 0.2 9.2 0.3 0.3 0.1 0.1 0.1 0.1 0.1 0.1 0.1 0.1 0.1 0.1 0.1 0.1 0.1 0.2 8.3 15.0 15.0 15.0 15.0
15.0 15.0 15.0 15.0 15.0 15.0 15.0 15.0 15.0 15.0 15.0 15.0 5.7 0.7 15.0 4.6 0.3 0.7 1.8 5.0 0.4 3.5 0.5 0.4 0.3 0.1 0.1 0.1 0.1 0.1 0.1 0.1 0.1 0.1 0.1 0.1 0.7 12.6 10.2 15.0 15.0 15.0 15.0 15.0
15.0 15.0 15.0 15.0 15.0 15.0 15.0 15.0 15.0 15.0 15.0 15.0 3.9 5.0 2.7 7.3 0.6 0.5 0.5 15.0 15.0 3.8 0.6 0.4 0.3 0.1 0.1 0.1 0.1 0.1 0.1 0.1 0.1 0.1 0.2 1.7 12.3 15.0 15.0 15.0 15.0 15.0 15.0 15.0
15.0 15.0 15.0 15.0 15.0 15.0 15.0 14.0 15.0 15.0 15.0 3.7 2.3 1.7 0.6 2.2 0.3 0.2 0.4 14.6 1.4 0.6 0.4 0.3 0.2 0.1 0.1 0.1 0.1 0.1 0.1 0.1 0.1 0.1 1.1 9.9 15.0 15.0 15.0 15.0 15.0 15.0 15.0 15.0
15.0 15.0 15.0 15.0 15.0 15.0 15.0 15.0 15.0 15.0 14.0 5.1 0.6 0.8 0.3 0.1 0.1 0.2 0.2 0.2 0.4 0.3 0.4 0.4 0.4 0.2 0.1 0.1 0.1 0.1 0.1 0.1 0.2 2.6 15.0 15.0 15.0 15.0 15.0 15.0 15.0 15.0 15.0 15.0
15.0 15.0 15.0 15.0 15.0 15.0 15.0 15.0 15.0 15.0 5.5 2.8 1.4 1.5 0.5 0.8 0.2 0.3 0.5 0.2 0.2 0.2 0.3 0.4 0.2 0.2 0.1 0.1 0.1 0.1 0.1 0.2 2.4 13.1 15.0 15.0 15.0 15.0 15.0 15.0 15.0 15.0 15.0 15.0